| time (UTC) | temp C | wind direction | speed KPH | gust KPH | rain 1hr cm | rain 24hr cm | rain mn cm | humidity % | barometer mb |
| 20260507110557 | 8 | 175 | 0.0 | 1.6 | 0.00 | 1.09 | 0.28 | 97 | 1018.3 |
| 20260507105557 | 7 | 0.0 | 0.0 | 0.00 | 1.09 | 0.28 | 97 | 1018.2 | |
| 20260507104539 | 7 | 63 | 0.0 | 3.2 | 0.00 | 1.12 | 0.28 | 97 | 1018.1 |
| 20260507103538 | 7 | 132 | 0.0 | 1.6 | 0.00 | 1.12 | 0.28 | 97 | 1018.1 |
| 20260507102517 | 7 | 127 | 0.0 | 1.6 | 0.00 | 1.12 | 0.28 | 97 | 1018.0 |
| 20260507101536 | 7 | 90 | 0.0 | 3.2 | 0.00 | 1.14 | 0.28 | 97 | 1017.9 |
| 20260507100515 | 7 | 97 | 0.0 | 3.2 | 0.00 | 1.14 | 0.28 | 98 | 1017.8 |
| 20260507095520 | 7 | 115 | 0.0 | 3.2 | 0.00 | 1.14 | 0.28 | 98 | 1017.6 |
| 20260507094518 | 7 | 180 | 0.0 | 1.6 | 0.00 | 1.17 | 0.28 | 97 | 1017.6 |
| 20260507093517 | 7 | 41 | 0.0 | 1.6 | 0.00 | 1.17 | 0.28 | 97 | 1017.3 |
| 20260507092520 | 7 | 68 | 0.0 | 3.2 | 0.00 | 1.19 | 0.28 | 97 | 1017.2 |
| 20260507091518 | 7 | 168 | 0.0 | 1.6 | 0.00 | 1.19 | 0.28 | 97 | 1017.1 |
| 20260507090516 | 7 | 140 | 0.0 | 1.6 | 0.00 | 1.19 | 0.28 | 97 | 1017.0 |
| 20260507085515 | 7 | 90 | 0.0 | 6.4 | 0.00 | 1.19 | 0.28 | 98 | 1016.9 |
| 20260507084518 | 7 | 157 | 0.0 | 3.2 | 0.00 | 1.19 | 0.28 | 98 | 1016.7 |
| 20260507083517 | 7 | 101 | 0.0 | 1.6 | 0.00 | 1.19 | 0.28 | 98 | 1016.6 |
| 20260507082515 | 7 | 139 | 0.0 | 3.2 | 0.00 | 1.19 | 0.28 | 99 | 1016.6 |
| 20260507081520 | 7 | 135 | 0.0 | 1.6 | 0.00 | 1.19 | 0.28 | 99 | 1016.5 |
| 20260507080515 | 7 | 217 | 0.0 | 1.6 | 0.00 | 1.19 | 0.28 | 99 | 1016.4 |
| 20260507075520 | 7 | 138 | 0.0 | 1.6 | 0.00 | 1.19 | 0.28 | 99 | 1016.3 |
| 20260507074538 | 7 | 303 | 0.0 | 1.6 | 0.00 | 1.19 | 0.28 | 99 | 1016.2 |
| 20260507073517 | 7 | 198 | 0.0 | 1.6 | 0.00 | 1.19 | 0.28 | 99 | 1016.1 |
| 20260507072516 | 7 | 156 | 0.0 | 1.6 | 0.00 | 1.19 | 0.28 | 99 | 1016.0 |
| 20260507071540 | 7 | 239 | 0.0 | 3.2 | 0.00 | 1.22 | 0.28 | 99 | 1016.0 |
| 20260507070518 | 7 | 157 | 0.0 | 1.6 | 0.00 | 1.24 | 0.28 | 99 | 1015.8 |
| 20260507065517 | 7 | 150 | 0.0 | 1.6 | 0.00 | 1.27 | 0.28 | 99 | 1015.7 |
| 20260507064536 | 7 | 115 | 0.0 | 1.6 | 0.00 | 1.27 | 0.28 | 99 | 1015.6 |
| 20260507063515 | 7 | 147 | 0.0 | 1.6 | 0.00 | 1.30 | 0.28 | 99 | 1015.5 |
| 20260507062519 | 7 | 214 | 0.0 | 1.6 | 0.00 | 1.30 | 0.28 | 99 | 1015.4 |
| 20260507061518 | 7 | 199 | 0.0 | 1.6 | 0.00 | 1.32 | 0.28 | 99 | 1015.2 |
| 20260507060517 | 7 | 356 | 0.0 | 1.6 | 0.00 | 1.32 | 0.28 | 99 | 1015.2 |
| 20260507055536 | 7 | 118 | 0.0 | 1.6 | 0.00 | 1.35 | 0.28 | 99 | 1014.9 |
| 20260507054535 | 7 | 127 | 0.0 | 1.6 | 0.00 | 1.35 | 0.28 | 99 | 1014.8 |
| 20260507053520 | 7 | 84 | 0.0 | 4.8 | 0.00 | 1.37 | 0.28 | 99 | 1014.8 |
| 20260507052518 | 7 | 168 | 0.0 | 1.6 | 0.00 | 1.40 | 0.28 | 99 | 1014.6 |
| 20260507051518 | 7 | 159 | 0.0 | 3.2 | 0.00 | 1.42 | 0.28 | 99 | 1014.5 |
| 20260507050517 | 7 | 161 | 0.0 | 1.6 | 0.00 | 1.45 | 0.28 | 99 | 1014.3 |
| 20260507045516 | 7 | 0.0 | 0.0 | 0.00 | 1.47 | 0.28 | 99 | 1014.2 | |
| 20260507044520 | 7 | 191 | 0.0 | 1.6 | 0.03 | 1.50 | 0.28 | 99 | 1014.0 |
| 20260507043519 | 7 | 170 | 0.0 | 1.6 | 0.03 | 1.52 | 0.28 | 99 | 1014.0 |
| 20260507042518 | 7 | 0.0 | 0.0 | 0.03 | 1.55 | 0.28 | 99 | 1013.9 | |
| 20260507041517 | 7 | 215 | 0.0 | 3.2 | 0.03 | 1.57 | 0.28 | 99 | 1013.7 |
| 20260507040516 | 7 | 307 | 0.0 | 3.2 | 0.03 | 1.63 | 0.28 | 99 | 1013.7 |
| 20260507035519 | 7 | 111 | 0.0 | 1.6 | 0.03 | 1.65 | 0.28 | 99 | 1013.6 |
| 20260507034518 | 7 | 95 | 0.0 | 1.6 | 0.00 | 1.65 | 0.25 | 99 | 1013.6 |
| 20260507033517 | 8 | 178 | 0.0 | 1.6 | 0.00 | 1.68 | 0.25 | 99 | 1013.5 |
| 20260507032515 | 8 | 111 | 0.0 | 1.6 | 0.00 | 1.70 | 0.25 | 99 | 1013.4 |
| 20260507031520 | 8 | 0.0 | 0.0 | 0.00 | 1.73 | 0.25 | 99 | 1013.3 | |
| 20260507030518 | 8 | 0.0 | 0.0 | 0.00 | 1.75 | 0.25 | 99 | 1013.3 | |
| 20260507025517 | 8 | 0.0 | 0.0 | 0.00 | 1.75 | 0.25 | 99 | 1013.2 | |
| 20260507024515 | 8 | 54 | 0.0 | 1.6 | 0.03 | 1.78 | 0.25 | 99 | 1013.2 |
| 20260507023519 | 8 | 134 | 0.0 | 1.6 | 0.03 | 1.80 | 0.25 | 99 | 1013.2 |
| 20260507022518 | 8 | 157 | 0.0 | 1.6 | 0.03 | 1.83 | 0.25 | 99 | 1013.2 |
| 20260507021517 | 8 | 277 | 0.0 | 3.2 | 0.05 | 1.85 | 0.25 | 99 | 1013.0 |
| 20260507020515 | 8 | 227 | 0.0 | 1.6 | 0.05 | 1.88 | 0.25 | 99 | 1012.9 |
| 20260507015519 | 8 | 240 | 0.0 | 1.6 | 0.08 | 1.88 | 0.25 | 99 | 1012.8 |
| 20260507014517 | 8 | 276 | 0.0 | 1.6 | 0.05 | 1.91 | 0.23 | 99 | 1012.8 |
| 20260507013516 | 8 | 293 | 0.0 | 1.6 | 0.05 | 1.91 | 0.23 | 99 | 1012.7 |
| 20260507012520 | 8 | 245 | 1.6 | 3.2 | 0.08 | 1.96 | 0.23 | 99 | 1012.6 |
| 20260507011518 | 8 | 215 | 1.6 | 4.8 | 0.05 | 1.96 | 0.20 | 99 | 1012.7 |
| 20260507010516 | 8 | 261 | 0.0 | 3.2 | 0.05 | 1.98 | 0.20 | 99 | 1012.7 |
| 20260507005520 | 8 | 278 | 0.0 | 4.8 | 0.05 | 1.98 | 0.18 | 99 | 1012.6 |
| 20260507004519 | 8 | 231 | 0.0 | 1.6 | 0.05 | 2.01 | 0.18 | 99 | 1012.5 |
| 20260507003517 | 8 | 258 | 0.0 | 3.2 | 0.05 | 2.01 | 0.18 | 99 | 1012.3 |
| 20260507002516 | 8 | 211 | 0.0 | 1.6 | 0.03 | 2.01 | 0.15 | 99 | 1012.4 |
| 20260507001519 | 8 | 186 | 0.0 | 1.6 | 0.03 | 2.03 | 0.15 | 99 | 1012.2 |
| 20260507000518 | 8 | 252 | 0.0 | 4.8 | 0.05 | 2.06 | 0.15 | 99 | 1012.2 |
| 20260506235517 | 8 | 227 | 0.0 | 3.2 | 0.03 | 2.06 | 0.13 | 99 | 1012.1 |
| 20260506234515 | 8 | 171 | 0.0 | 3.2 | 0.05 | 2.08 | 0.13 | 99 | 1012.2 |
| 20260506233518 | 8 | 177 | 0.0 | 3.2 | 0.08 | 2.08 | 0.13 | 99 | 1012.2 |
| 20260506232517 | 8 | 242 | 0.0 | 3.2 | 0.10 | 2.11 | 0.13 | 99 | 1012.0 |
| 20260506231536 | 8 | 183 | 0.0 | 3.2 | 0.13 | 2.13 | 0.13 | 99 | 1012.0 |
| 20260506230520 | 8 | 203 | 0.0 | 3.2 | 0.10 | 2.11 | 0.10 | 99 | 1012.0 |
| 20260506225519 | 8 | 237 | 0.0 | 4.8 | 0.10 | 2.13 | 0.10 | 99 | 1012.0 |
| 20260506224517 | 8 | 270 | 1.6 | 4.8 | 0.10 | 2.13 | 0.08 | 99 | 1011.9 |
| 20260506223515 | 8 | 292 | 0.0 | 3.2 | 0.08 | 2.11 | 0.05 | 99 | 1011.8 |
| 20260506222519 | 8 | 259 | 0.0 | 4.8 | 0.08 | 2.08 | 0.03 | 99 | 1011.7 |
| 20260506221516 | 8 | 247 | 1.6 | 3.2 | 0.08 | 2.08 | 0.00 | 99 | 1011.5 |
| 20260506220520 | 8 | 240 | 0.0 | 3.2 | 0.08 | 2.08 | 0.00 | 99 | 1011.5 |
| 20260506215518 | 8 | 257 | 0.0 | 1.6 | 0.10 | 2.08 | 2.08 | 99 | 1011.5 |
| 20260506214519 | 8 | 303 | 0.0 | 4.8 | 0.10 | 2.06 | 2.06 | 99 | 1011.4 |
| 20260506213516 | 8 | 246 | 0.0 | 1.6 | 0.13 | 2.06 | 2.06 | 99 | 1011.2 |
| 20260506212517 | 8 | 186 | 0.0 | 1.6 | 0.10 | 2.03 | 2.03 | 99 | 1011.1 |
| 20260506211519 | 8 | 205 | 0.0 | 3.2 | 0.10 | 2.01 | 2.01 | 99 | 1011.3 |
| 20260506210515 | 8 | 284 | 0.0 | 3.2 | 0.13 | 2.01 | 2.01 | 99 | 1011.3 |
| 20260506205518 | 8 | 227 | 1.6 | 3.2 | 0.15 | 1.98 | 1.98 | 99 | 1011.0 |
| 20260506204518 | 8 | 195 | 1.6 | 3.2 | 0.23 | 1.96 | 1.96 | 99 | 1011.1 |
| 20260506203518 | 9 | 239 | 0.0 | 1.6 | 0.28 | 1.93 | 1.93 | 99 | 1011.0 |
| 20260506202517 | 9 | 175 | 0.0 | 3.2 | 0.30 | 1.93 | 1.93 | 99 | 1010.9 |
| 20260506201518 | 9 | 248 | 0.0 | 1.6 | 0.28 | 1.91 | 1.91 | 99 | 1010.9 |
| 20260506200518 | 8 | 290 | 1.6 | 4.8 | 0.28 | 1.88 | 1.88 | 99 | 1011.0 |
| 20260506195556 | 8 | 300 | 1.6 | 4.8 | 0.23 | 1.83 | 1.83 | 99 | 1010.9 |
| 20260506194515 | 9 | 293 | 0.0 | 1.6 | 0.15 | 1.73 | 1.73 | 99 | 1010.8 |
| 20260506193515 | 8 | 283 | 0.0 | 1.6 | 0.10 | 1.65 | 1.65 | 99 | 1010.7 |
| 20260506192517 | 8 | 290 | 0.0 | 3.2 | 0.08 | 1.63 | 1.63 | 99 | 1010.5 |
| 20260506191518 | 8 | 295 | 1.6 | 6.4 | 0.08 | 1.63 | 1.63 | 99 | 1010.5 |
| 20260506190518 | 8 | 286 | 1.6 | 3.2 | 0.05 | 1.60 | 1.60 | 99 | 1010.4 |
| 20260506185516 | 9 | 293 | 1.6 | 4.8 | 0.08 | 1.60 | 1.60 | 99 | 1010.3 |
| 20260506184520 | 9 | 291 | 1.6 | 3.2 | 0.08 | 1.57 | 1.57 | 99 | 1010.2 |
| 20260506183539 | 9 | 299 | 1.6 | 4.8 | 0.08 | 1.55 | 1.55 | 99 | 1010.2 |
| 20260506182518 | 9 | 294 | 1.6 | 4.8 | 0.08 | 1.55 | 1.55 | 99 | 1010.1 |
| 20260506181515 | 9 | 280 | 0.0 | 1.6 | 0.10 | 1.55 | 1.55 | 99 | 1009.9 |
| 20260506180519 | 9 | 243 | 0.0 | 1.6 | 0.10 | 1.55 | 1.55 | 99 | 1009.9 |
| 20260506175600 | 9 | 280 | 1.6 | 4.8 | 0.10 | 1.52 | 1.52 | 99 | 1009.9 |
| 20260506174518 | 10 | 292 | 0.0 | 1.6 | 0.13 | 1.50 | 1.50 | 99 | 1009.9 |
| 20260506173556 | 10 | 268 | 0.0 | 3.2 | 0.10 | 1.47 | 1.47 | 99 | 1009.8 |
| 20260506172518 | 10 | 211 | 0.0 | 1.6 | 0.13 | 1.47 | 1.47 | 99 | 1009.8 |
| 20260506171516 | 10 | 286 | 0.0 | 1.6 | 0.10 | 1.45 | 1.45 | 99 | 1009.6 |
| 20260506170518 | 10 | 264 | 0.0 | 3.2 | 0.10 | 1.45 | 1.45 | 99 | 1009.6 |
| 20260506165517 | 10 | 237 | 0.0 | 1.6 | 0.08 | 1.42 | 1.42 | 99 | 1009.5 |
| 20260506164520 | 10 | 288 | 0.0 | 6.4 | 0.03 | 1.37 | 1.37 | 99 | 1009.6 |
| 20260506163538 | 10 | 288 | 1.6 | 3.2 | 0.03 | 1.37 | 1.37 | 99 | 1009.5 |
| 20260506162519 | 10 | 275 | 0.0 | 3.2 | 0.00 | 1.35 | 1.35 | 99 | 1009.4 |
| 20260506161518 | 10 | 0.0 | 0.0 | 0.00 | 1.35 | 1.35 | 99 | 1009.4 | |
| 20260506160519 | 10 | 280 | 0.0 | 3.2 | 0.03 | 1.35 | 1.35 | 99 | 1009.5 |
| 20260506155520 | 10 | 0.0 | 0.0 | 0.03 | 1.35 | 1.35 | 99 | 1009.4 | |
| 20260506154538 | 10 | 263 | 0.0 | 1.6 | 0.05 | 1.35 | 1.35 | 99 | 1009.5 |
| 20260506153518 | 10 | 286 | 0.0 | 1.6 | 0.05 | 1.35 | 1.35 | 99 | 1009.5 |
| 20260506152517 | 10 | 230 | 0.0 | 1.6 | 0.05 | 1.35 | 1.35 | 99 | 1009.6 |
| 20260506151516 | 10 | 189 | 0.0 | 1.6 | 0.05 | 1.35 | 1.35 | 99 | 1009.5 |
| 20260506150516 | 10 | 276 | 0.0 | 1.6 | 0.03 | 1.32 | 1.32 | 98 | 1009.5 |
| 20260506145518 | 10 | 0.0 | 0.0 | 0.03 | 1.32 | 1.32 | 98 | 1009.6 | |
| 20260506144517 | 10 | 212 | 0.0 | 1.6 | 0.00 | 1.30 | 1.30 | 98 | 1009.5 |
| 20260506143518 | 10 | 150 | 0.0 | 1.6 | 0.00 | 1.30 | 1.30 | 98 | 1009.4 |
| 20260506142517 | 10 | 0.0 | 0.0 | 0.00 | 1.30 | 1.30 | 99 | 1009.5 | |
| 20260506141517 | 10 | 128 | 0.0 | 1.6 | 0.00 | 1.30 | 1.30 | 99 | 1009.5 |
| 20260506140518 | 10 | 0.0 | 0.0 | 0.00 | 1.30 | 1.30 | 99 | 1009.5 | |
| 20260506135539 | 10 | 154 | 0.0 | 1.6 | 0.00 | 1.30 | 1.30 | 99 | 1009.6 |
| 20260506134540 | 10 | 120 | 0.0 | 1.6 | 0.00 | 1.30 | 1.30 | 99 | 1009.6 |
| 20260506133515 | 10 | 116 | 0.0 | 1.6 | 0.00 | 1.30 | 1.30 | 99 | 1009.5 |
| 20260506132519 | 10 | 113 | 0.0 | 1.6 | 0.00 | 1.30 | 1.30 | 99 | 1009.5 |
| 20260506131538 | 10 | 221 | 0.0 | 1.6 | 0.00 | 1.30 | 1.30 | 99 | 1009.4 |
| 20260506130517 | 10 | 225 | 0.0 | 3.2 | 0.00 | 1.30 | 1.30 | 99 | 1009.5 |
| 20260506125518 | 10 | 145 | 0.0 | 1.6 | 0.03 | 1.30 | 1.30 | 99 | 1009.5 |
| 20260506124520 | 10 | 148 | 0.0 | 1.6 | 0.03 | 1.30 | 1.30 | 99 | 1009.4 |
| 20260506123556 | 10 | 109 | 0.0 | 1.6 | 0.03 | 1.30 | 1.30 | 99 | 1009.4 |
| 20260506122518 | 10 | 157 | 0.0 | 1.6 | 0.03 | 1.30 | 1.30 | 99 | 1009.4 |
| 20260506121520 | 10 | 179 | 0.0 | 1.6 | 0.03 | 1.30 | 1.30 | 99 | 1009.4 |
| 20260506120517 | 9 | 100 | 0.0 | 1.6 | 0.03 | 1.30 | 1.30 | 99 | 1009.3 |
| 20260506115517 | 9 | 193 | 0.0 | 1.6 | 0.00 | 1.27 | 1.27 | 99 | 1009.3 |
| 20260506114518 | 9 | 227 | 0.0 | 3.2 | 0.03 | 1.27 | 1.27 | 99 | 1009.4 |
| 20260506113519 | 9 | 233 | 0.0 | 3.2 | 0.03 | 1.27 | 1.27 | 99 | 1009.3 |
| 20260506112516 | 8 | 224 | 0.0 | 1.6 | 0.03 | 1.27 | 1.27 | 99 | 1009.4 |
| 20260506111518 | 8 | 170 | 0.0 | 1.6 | 0.05 | 1.27 | 1.27 | 99 | 1009.5 |